Regional Weather Roundup
Issued by NWS Charleston, SC

Current Version | Previous Version | Graphics & Text | Print | Product List | Glossary On
Versions: 1 2 3 4 5 6 7 8 9 10 11 12 13 14 15 16 17 18 19 20 21 22 23 24 25 26 27 28 29 30 31 32 33 34 35 36 37 38 39 40 41 42 43 44 45 46 47 48 49 50
040 ASUS42 KCHS 191512 RWRCHS REGIONAL WEATHER ROUNDUP NATIONAL WEATHER SERVICE CHARLESTON SC 1000 AM EST SUN FEB 19 2017 NOTE: "FAIR" INDICATES FEW OR NO CLOUDS BELOW 12,000 FEET WITH NO SIGNIFICANT WEATHER AND/OR OBSTRUCTIONS TO VISIBILITY. NOT ALL STATIONS ARE QUALITY CONTROLLED. USE DATA WITH CAUTION... ESPECIALLY DEWPOINT OBSERVATIONS. SCZ027-030-031-034>040-042>050-191600- ...SOUTHEAST SOUTH CAROLINA... CITY SKY/WX TMP DP RH WIND PRES REMARKS N CHARLESTON MOSUNNY 63 50 62 NW9 30.03R WATERFRONT PRK N/A 60 52 74 W6 30.02R MOUNT PLEASANT FAIR 64 54 68 W7 30.03S JOHNS ISLAND FAIR 64 54 68 W10 30.04R PINOPOLIS N/A 57 52 82 CALM 29.94R MONCKS CORNER FAIR 63 50 63 NW5 30.03S SUMMERVILLE FAIR 63 52 67 W6 30.04S BEAUFORT MCAS SUNNY 65 55 70 W8G18 30.05S BEAUFORT ARPT FAIR 63 54 72 W8 30.05S HILTON HEAD IS SUNNY 68 55 64 SW6 30.06S WALTERBORO SUNNY 63 52 67 NW10G16 30.05R ALLENDALE FAIR 63 54 72 VRB7 30.04S ...SOUTHERN MIDLANDS AND PEE DEE... CITY SKY/WX TMP DP RH WIND PRES REMARKS GEORGETOWN FAIR 61 50 67 W10 30.03S KINGSTREE FAIR 59 48 67 NW12 30.03R ORANGEBURG SUNNY 62 51 67 NW8 30.02F BARNWELL FAIR 63 55 77 W8 30.05R AIKEN FAIR 61 52 72 W10 30.06S MANNING FAIR 59 43 55 MISG 30.03R COLUMBIA SUNNY 62 49 62 NW8 30.02S SUMTER SUNNY 60 48 64 N5 30.00R FLORENCE SUNNY 59 48 67 NW7 30.03R MYRTLE BEACH SUNNY 59 48 67 NW8 30.03R N MYRTLE BEACH SUNNY 60 49 66 NW9 30.00S $$ GAZ063-065-086>088-099>101-113>116-118-119-134>141-150-191600- ...SOUTHEAST GEORGIA... CITY SKY/WX TMP DP RH WIND PRES REMARKS SAVANNAH ARPT MOSUNNY 65 51 60 W8 30.07R HUNTER AAF SUNNY 65 55 70 NW5 30.05R FORT STEWART SUNNY 64 53 66 W6 30.06R STATESBORO SUNNY 65 56 74 NW8 30.07S SYLVANIA SUNNY N/A N/A N/A NW8 30.08R CLAXTON FAIR N/A N/A N/A SW5 30.08S ...CSRA...CENTRAL AND FAR SOUTHEAST GEORGIA... CITY SKY/WX TMP DP RH WIND PRES REMARKS THOMSON SUNNY 63 58 84 W8 30.10R AUGUSTA-BUSH SUNNY 65 54 67 NW12 30.04S AUGUSTA-DANIEL SUNNY 63 51 65 VRB7 30.05R SWAINSBORO FAIR 61 54 77 NW5 30.08S VIDALIA MOSUNNY 64 59 82 NW7 30.08S EASTMAN FAIR 67 52 58 NW7 30.10S HAZLEHURST FAIR 62 60 93 SW3 30.08S ALMA CLOUDY 60 59 96 NW8 30.09S WAYCROSS CLOUDY 67 64 93 N6 30.09S JESUP FAIR 64 57 77 NW6 30.09R BAXLEY CLOUDY 59 59 100 W5 30.09S BRUNSWICK MOSUNNY 64 61 88 W10 30.08S SAINT SIMONS MOSUNNY 64 58 80 NW9 30.07S $$ SCZ027-028-034-036>038-045-046-048>050-GAZ119-141-191600- ...LAKE AND SUPPLEMENTAL COASTAL OBSERVATIONS... STATION/POSITION TIME TEMP WIND PRES WAVE SWELL AIR SEA DIR/SP/G HT/PER HT/PER/DIR (UTC) (F) (DEG/KT/KT) (MB) (FT/S) (FT/S/D) WINYAH BAY 1345 55 280/ 4 1016.0 LAKE MURRAY 1420 54 270/ 4/ 10 1016.3S ACE BASIN NERRS 1345 55 250/ 2 1017.0 FORT PULASKI 1448 310/ 10/ 11 1018.3R SAPELO ISLAND 1400 57 290/ 5 1018.0 $$ ANZ835-935-AMZ111-154-330-350-352-354-370-450-454-472-191600- ...C-MAN AND BUOY OBSERVATIONS... STATION/POSITION TIME TEMP WIND PRES WAVE SWELL AIR SEA DIR/SP/G HT/PER HT/PER/DIR (UTC) (F) (DEG/KT/KT) (MB) (FT/S) (FT/S/D) BUOY 41004 1450 61 68 290/ 12/ 16 1016.6R 2/ 3 2/ 80/ 9 BUOY 41008 1450 59 61 270/ 8/ 10 1018.0R 1/ 5 2/130/ 5 FOLLY BEACH CMAN 1400 57 270/ 7/ 9 1017.3R CAPERS NEARSHORE 1408 56 58 290/ 8/ 12 1016.6R FRIPP NEARSHORE 1408 58 59 280/ 6/ 8 1017.2R STATION/POSITION TIME TEMP WIND PRES WAVE SWELL AIR SEA DIR/SP/G HT/PER HT/PER/DIR (UTC) (F) (DEG/KT/KT) (MB) (FT/S) (FT/S/D) 5E ST. MARYS GA 1430 63 N/A 2/ 2 FRYING PAN BUOY 1450 60 64 280/ 16/ 21 1015.6R 3/ 6 2/110/10 BUOY 41025 1450 62 67 280/ 10/ 12 1013.6R 2/ 7 2/180/ 7 CAPE LOOKOUT NC 1400 56 280/ 9/ 11 1013.0F BUOY 41002 1450 68 71 170/ 16/ 17 1014.8F 5/ 6 2/ 50/ 9 BUOY 41010 NOT AVBL ST AUGUSTINE FL 1500 66 65 300/ 7/ 10 1019.6R $$

USA.gov is the U.S. government's official web portal to all federal, state and local government web resources and services.